Location: Krasnoyarskiy Pitomnik
(51.1333°N, 71.6167°E)
Time: 14:02:24
(UTC+00:00)

Cosmos 2341 Rocket - Pass Details

Date: 22 October 2021
Orbit: 967 x 1005 km, 82.9° (Epoch: 26 November)

Event Time Altitude Azimuth Distance (km) Brightness Sun altitude
Rises 22:39:24 0° 350° (N) 3,720 7.2 -30.2°
Reaches altitude 10° 22:41:57 10° 351° (N) 2,761 6.5 -29.8°
Maximum altitude 22:48:18 82° 80° (E) 998 4.0 -28.9°
Drops below altitude 10° 22:54:33 10° 168° (SSE) 2,717 6.3 -28.0°
Sets 22:57:02 0° 169° (S) 3,656 6.9 -27.6°
